Simultaneous Nadir Overpasses (SNOs) Predictions

Prediction of SNOs between AQUA and GOES-15 Satellite Orbit:

Table of predicted SNOs for the next 14.0 days since TLE Epoch: 10/30/2021
Index Date Time (AQUA) AQUA Lat,Lon GOES-15 Lat,Lon Distance(km) Time Diff (sec)
1 10/30/2021 09:55:02 -0.57,-124.92 0.18,-128.40 396.47 80
2 10/30/2021 22:16:26 -0.50,-130.12 -0.16,-128.41 194.15 80
3 11/01/2021 22:04:16 0.11,-127.16 -0.16,-128.42 143.38 80
4 11/02/2021 10:25:33 0.93,-132.33 0.13,-128.43 443.01 80
5 11/03/2021 21:52:07 0.73,-124.21 -0.16,-128.43 480.61 80
6 11/04/2021 10:13:22 0.37,-129.36 0.14,-128.44 106.01 80
7 11/06/2021 10:01:12 -0.27,-126.41 0.14,-128.44 230.27 80
8 11/06/2021 22:22:37 -0.79,-131.61 -0.12,-128.44 361.12 80
9 11/08/2021 22:10:26 -0.19,-128.65 -0.12,-128.43 25.89 80
10 11/10/2021 21:58:16 0.48,-125.70 -0.12,-128.42 309.12 80
11 11/11/2021 10:19:32 0.61,-130.86 0.10,-128.42 277.67 80
